QPF
0.00 0.00 0.00 0.00 0.00 0.00 0.00 0.00 0.00 0.00 0.00 0.00 0.00 0.00 0.00 0.00 0.00 0.00 0.00 0.00 0.00 0.00 0.00 0.00 0.00 0.00 0.00 0.00 0.00 0.00 0.00 0.00 0.00 0.00 0.00 0.00 0.00 0.00 0.00 0.00 0.00 0.00 0.00 0.00
0.00 0.00 0.00 0.00 0.00 0.00 0.00 0.00 0.00 0.00 0.00 0.00 0.00 0.00 0.00 0.00 0.00 0.00 0.00 0.00 0.00 0.00 0.00 0.00 0.00 0.00 0.00 0.00 0.00 0.00 0.00 0.00 0.00 0.00 0.00 0.00 0.00 0.00 0.00 0.00 0.00 0.00 0.00 0.00
0.00 0.00 0.00 0.00 0.00 0.00 0.00 0.00 0.00 0.00 0.00 0.00 0.00 0.00 0.00 0.00 0.00 0.00 0.00 0.00 0.00 0.00 0.00 0.00 0.00 0.00 0.00 0.00 0.00 0.00 0.00 0.00 0.00 0.00 0.00 0.00 0.00 0.00 0.00 0.00 0.00 0.00 0.00 0.00
0.00 0.00 0.00 0.00 0.00 0.00 0.00 0.00 0.00 0.00 0.00 0.00 0.00 0.00 0.00 0.00 0.00 0.00 0.00 0.00 0.00 0.00 0.00 0.00 0.00 0.00 0.00 0.00 0.00 0.00 0.00 0.00 0.00 0.01 0.00 0.00 0.00 0.00 0.00 0.00 0.00 0.00 0.00 0.00
0.00 0.00 0.00 0.00 0.00 0.00 0.00 0.00 0.00 0.00 0.00 0.00 0.00 0.00 0.00 0.00 0.00 0.00 0.00 0.00 0.00 0.00 0.00 0.00 0.00 0.00 0.00 0.00 0.01 0.03 0.03 0.03 0.03 0.02 0.01 0.00 0.00 0.00 0.00 0.00 0.00 0.00 0.00 0.00
0.00 0.00 0.00 0.00 0.00 0.00 0.00 0.00 0.00 0.00 0.00 0.00 0.00 0.00 0.00 0.00 0.00 0.00 0.00 0.00 0.00 0.00 0.00 0.00 0.00 0.00 0.00 0.00 0.03 0.10 0.05 0.04 0.04 0.04 0.02 0.01 0.00 0.00 0.00 0.00 0.00 0.00 0.00 0.00
0.00 0.00 0.00 0.00 0.00 0.00 0.00 0.00 0.00 0.00 0.00 0.00 0.00 0.00 0.00 0.00 0.00 0.00 0.00 0.00 0.00 0.00 0.00 0.00 0.00 0.00 0.00 0.01 0.04 0.07 0.06 0.04 0.03 0.03 0.03 0.01 0.00 0.00 0.00 0.00 0.00 0.00 0.00 0.00
0.00 0.00 0.00 0.00 0.00 0.00 0.00 0.00 0.00 0.00 0.00 0.00 0.00 0.00 0.00 0.00 0.00 0.00 0.00 0.00 0.00 0.00 0.00 0.00 0.00 0.00 0.00 0.00 0.04 0.05 0.04 0.02 0.01 0.01 0.01 0.01 0.00 0.00 0.00 0.00 0.00 0.00 0.00 0.00
0.00 0.00 0.00 0.00 0.00 0.00 0.00 0.00 0.00 0.00 0.00 0.00 0.00 0.00 0.00 0.00 0.00 0.00 0.00 0.00 0.00 0.00 0.00 0.00 0.00 0.00 0.00 0.00 0.00 0.03 0.04 0.01 0.00 0.00 0.01 0.04 0.02 0.00 0.00 0.00 0.00 0.00 0.00 0.01
0.00 0.00 0.00 0.00 0.00 0.00 0.00 0.00 0.00 0.00 0.00 0.00 0.00 0.00 0.00 0.00 0.00 0.00 0.00 0.00 0.00 0.00 0.00 0.00 0.00 0.00 0.00 0.00 0.00 0.00 0.01 0.02 0.00 0.00 0.02 0.04 0.05 0.02 0.00 0.00 0.00 0.01 0.02 0.02
0.00 0.00 0.00 0.00 0.00 0.00 0.00 0.00 0.00 0.00 0.01 0.02 0.01 0.00 0.00 0.00 0.00 0.00 0.00 0.01 0.01 0.00 0.00 0.00 0.00 0.00 0.00 0.00 0.00 0.00 0.00 0.00 0.00 0.00 0.00 0.01 0.03 0.04 0.02 0.01 0.00 0.00 0.01 0.00
0.00 0.00 0.00 0.00 0.00 0.00 0.00 0.00 0.00 0.00 0.00 0.01 0.01 0.01 0.00 0.00 0.00 0.00 0.00 0.00 0.01 0.00 0.00 0.01 0.01 0.00 0.00 0.00 0.00 0.00 0.00 0.00 0.00 0.00 0.00 0.00 0.00 0.01 0.01 0.00 0.00 0.00 0.00 0.00
0.00 0.00 0.00 0.00 0.00 0.00 0.00 0.00 0.00 0.00 0.00 0.00 0.00 0.00 0.00 0.00 0.00 0.00 0.00 0.00 0.00 0.00 0.00 0.00 0.01 0.00 0.00 0.00 0.00 0.00 0.00 0.00 0.00 0.00 0.00 0.00 0.00 0.00 0.00 0.00 0.00 0.00 0.00 0.00
0.00 0.00 0.00 0.00 0.00 0.00 0.00 0.00 0.00 0.00 0.00 0.00 0.00 0.00 0.00 0.00 0.00 0.00 0.00 0.00 0.00 0.00 0.00 0.00 0.02 0.01 0.00 0.00 0.00 0.00 0.00 0.00 0.00 0.00 0.00 0.00 0.00 0.00 0.00 0.00 0.00 0.00 0.00 0.00
0.00 0.00 0.00 0.00 0.00 0.00 0.00 0.00 0.00 0.00 0.00 0.00 0.00 0.00 0.00 0.00 0.00 0.00 0.00 0.00 0.00 0.00 0.00 0.00 0.00 0.05 0.01 0.00 0.00 0.00 0.00 0.00 0.00 0.00 0.00 0.00 0.00 0.00 0.00 0.00 0.00 0.00 0.00 0.00
0.00 0.00 0.00 0.00 0.00 0.00 0.00 0.00 0.00 0.00 0.00 0.00 0.00 0.00 0.00 0.00 0.00 0.00 0.00 0.00 0.00 0.00 0.00 0.00 0.01 0.02 0.03 0.02 0.00 0.00 0.00 0.00 0.00 0.00 0.00 0.00 0.00 0.00 0.00 0.00 0.00 0.00 0.00 0.00
0.00 0.00 0.00 0.00 0.00 0.00 0.00 0.00 0.00 0.00 0.00 0.00 0.01 0.00 0.00 0.00 0.01 0.01 0.00 0.00 0.00 0.00 0.00 0.02 0.04 0.04 0.08 0.05 0.00 0.00 0.00 0.00 0.00 0.00 0.00 0.00 0.00 0.00 0.00 0.00 0.00 0.00 0.00 0.00
0.00 0.00 0.00 0.00 0.00 0.00 0.00 0.00 0.00 0.00 0.00 0.00 0.00 0.00 0.01 0.01 0.01 0.02 0.00 0.00 0.00 0.01 0.01 0.03 0.02 0.01 0.03 0.04 0.01 0.00 0.00 0.00 0.00 0.00 0.00 0.00 0.00 0.00 0.00 0.00 0.00 0.00 0.00 0.00
0.00 0.00 0.00 0.00 0.00 0.00 0.00 0.00 0.00 0.00 0.00 0.00 0.00 0.00 0.00 0.00 0.01 0.01 0.02 0.01 0.01 0.02 0.03 0.01 0.00 0.00 0.00 0.01 0.01 0.00 0.00 0.01 0.00 0.00 0.00 0.00 0.00 0.00 0.00 0.00 0.00 0.00 0.00 0.00
0.00 0.00 0.00 0.00 0.01 0.01 0.00 0.00 0.00 0.01 0.00 0.01 0.01 0.01 0.01 0.01 0.02 0.01 0.02 0.02 0.01 0.00 0.01 0.00 0.00 0.00 0.00 0.00 0.00 0.00 0.01 0.00 0.00 0.00 0.00 0.00 0.00 0.00 0.00 0.00 0.00 0.00 0.00 0.00
0.00 0.01 0.01 0.01 0.03 0.01 0.00 0.00 0.01 0.04 0.02 0.03 0.03 0.01 0.00 0.01 0.01 0.02 0.04 0.02 0.01 0.00 0.00 0.00 0.00 0.00 0.00 0.00 0.00 0.00 0.00 0.00 0.00 0.00 0.00 0.00 0.00 0.00 0.00 0.00 0.00 0.00 0.00 0.00
0.00 0.01 0.01 0.02 0.02 0.01 0.01 0.00 0.02 0.02 0.00 0.01 0.01 0.02 0.02 0.02 0.02 0.02 0.01 0.01 0.00 0.00 0.00 0.00 0.00 0.00 0.00 0.00 0.00 0.00 0.00 0.00 0.00 0.00 0.00 0.00 0.00 0.00 0.00 0.00 0.00 0.00 0.00 0.00
0.01 0.02 0.02 0.02 0.00 0.00 0.00 0.00 0.00 0.01 0.01 0.01 0.01 0.00 0.01 0.01 0.02 0.01 0.01 0.00 0.00 0.00 0.00 0.00 0.00 0.00 0.00 0.00 0.00 0.00 0.00 0.00 0.00 0.00 0.00 0.00 0.00 0.00 0.00 0.00 0.00 0.00 0.00 0.00
0.00 0.01 0.02 0.01 0.00 0.00 0.00 0.00 0.00 0.00 0.00 0.01 0.01 0.00 0.00 0.00 0.00 0.00 0.01 0.00 0.00 0.00 0.00 0.00 0.00 0.00 0.00 0.00 0.00 0.00 0.00 0.00 0.00 0.00 0.00 0.00 0.00 0.00 0.00 0.00 0.00 0.00 0.00 0.00
0.00 0.00 0.00 0.00 0.00 0.00 0.00 0.00 0.00 0.00 0.00 0.00 0.00 0.00 0.00 0.00 0.00 0.00 0.00 0.00 0.00 0.00 0.00 0.00 0.00 0.00 0.00 0.00 0.00 0.00 0.00 0.00 0.00 0.00 0.00 0.00 0.00 0.00 0.00 0.00 0.00 0.00 0.00 0.00
0.00 0.00 0.01 0.00 0.00 0.00 0.00 0.00 0.00 0.00 0.00 0.00 0.00 0.00 0.00 0.00 0.00 0.00 0.00 0.00 0.00 0.00 0.00 0.00 0.00 0.00 0.00 0.00 0.00 0.00 0.00 0.00 0.00 0.00 0.00 0.00 0.00 0.00 0.00 0.00 0.00 0.00 0.00 0.00
MSLP
1007.45 1007.86 1007.61 1007.72 1007.57 1007.03 1006.53 1005.90 1005.19 1004.28 1003.26 1002.68 1002.18 1001.81 1001.71 1001.32 1001.08 1000.86 1000.86 1001.15 1000.87 1000.73 1000.44 1000.16 1000.12 1000.01 1000.72 1001.60 1002.67 1003.77 1004.88 1005.86 1006.59 1007.20 1008.10 1009.47 1010.57 1011.52 1011.97 1012.20 1012.50 1012.99 1013.40 1013.72
1007.92 1007.04 1006.68 1006.36 1006.32 1006.16 1005.99 1005.57 1004.94 1004.09 1003.69 1003.42 1002.55 1000.84 1001.30 1000.94 1000.61 1000.62 1000.49 1000.60 1000.74 1000.65 1000.20 1000.06 1000.05 1000.27 1000.24 1000.78 1001.71 1002.73 1003.75 1004.72 1005.57 1006.48 1007.28 1008.21 1009.06 1010.27 1011.24 1012.09 1012.49 1012.94 1013.51 1013.97
1007.25 1006.50 1005.96 1006.01 1005.79 1005.69 1005.42 1005.32 1005.03 1004.72 1004.24 1004.01 1003.57 1000.64 1001.38 1000.80 1000.09 999.92 999.87 1000.00 1000.04 1000.03 1000.15 1000.47 1000.50 1000.69 1000.26 1000.68 1000.51 1001.45 1002.53 1003.75 1004.84 1005.85 1007.06 1008.20 1009.34 1010.49 1011.30 1011.62 1012.10 1012.52 1012.96 1013.60
1006.28 1005.83 1005.35 1005.02 1004.79 1005.30 1005.10 1005.11 1005.48 1005.71 1005.97 1005.65 1004.76 1002.68 1001.83 1001.35 1001.13 1001.00 1000.17 1000.42 1000.72 1000.64 1001.23 1001.63 1001.56 1001.23 1000.72 1000.25 1000.98 1001.56 1002.82 1004.11 1005.12 1006.05 1006.91 1007.66 1008.32 1010.21 1011.22 1012.04 1012.73 1012.93 1012.80 1013.10
1005.54 1005.01 1005.08 1004.69 1004.36 1004.88 1005.45 1005.59 1005.97 1006.54 1006.96 1006.60 1004.94 1006.28 999.98 1001.94 1002.32 1001.72 1001.10 1001.06 1002.11 1002.29 1002.33 1002.38 1002.44 1002.08 1001.60 1000.50 1001.28 1002.32 1003.06 1004.11 1004.73 1005.73 1006.49 1007.53 1008.77 1009.97 1011.15 1012.26 1013.33 1014.11 1014.60 1014.47
1005.85 1005.10 1005.07 1004.62 1004.46 1004.81 1005.46 1006.31 1006.98 1007.31 1008.13 1007.73 1004.29 1006.53 1002.03 1002.57 1003.65 1003.12 1002.53 1002.62 1003.03 1003.21 1003.38 1003.48 1003.45 1003.01 1002.68 1001.65 1001.61 1002.21 1002.94 1003.78 1004.86 1005.90 1006.60 1007.27 1008.13 1009.58 1010.96 1012.13 1012.85 1013.68 1014.43 1015.08
1005.95 1005.52 1005.11 1004.79 1004.82 1005.21 1005.84 1007.27 1008.36 1008.49 1008.48 1006.95 1005.90 1006.01 1004.13 1004.56 1004.62 1004.55 1003.93 1003.91 1004.21 1004.51 1004.87 1005.13 1005.05 1004.68 1004.23 1003.87 1003.28 1003.16 1003.47 1004.12 1004.90 1005.75 1006.46 1007.38 1007.33 1008.38 1010.20 1011.59 1012.64 1013.33 1014.23 1015.16
1006.40 1006.12 1005.33 1005.70 1006.11 1006.63 1007.06 1007.85 1009.30 1009.47 1009.14 1008.45 1007.34 1006.34 1005.12 1005.81 1006.24 1006.70 1006.78 1006.63 1006.24 1006.01 1005.90 1006.21 1006.41 1006.13 1005.74 1005.22 1004.60 1004.28 1004.60 1004.95 1004.95 1005.62 1006.58 1006.80 1006.84 1008.16 1009.50 1010.71 1012.10 1012.92 1013.94 1014.94
1007.46 1006.72 1006.40 1007.02 1007.41 1007.57 1008.15 1009.14 1009.87 1010.57 1010.59 1010.42 1008.38 1007.11 1006.13 1006.38 1007.27 1007.64 1008.52 1009.01 1008.95 1008.83 1008.07 1007.22 1007.37 1007.41 1007.11 1006.79 1005.92 1005.30 1004.91 1005.03 1005.69 1005.93 1006.58 1007.54 1007.50 1007.98 1009.43 1010.72 1011.99 1012.86 1014.16 1014.85
1008.95 1008.82 1008.09 1007.91 1008.25 1008.37 1009.38 1010.10 1010.93 1011.90 1012.39 1011.37 1009.32 1008.74 1008.07 1008.35 1009.01 1009.22 1009.21 1009.82 1009.86 1010.05 1009.94 1009.84 1008.48 1008.29 1008.87 1008.17 1007.67 1007.90 1007.22 1006.37 1006.68 1006.90 1007.12 1007.99 1008.49 1008.91 1009.88 1011.01 1012.17 1013.09 1014.41 1015.02
1010.07 1010.35 1010.09 1009.81 1009.68 1009.99 1010.44 1010.91 1012.13 1013.12 1013.50 1013.05 1011.46 1010.07 1009.21 1009.74 1010.02 1010.29 1010.32 1010.28 1010.13 1009.58 1010.76 1011.12 1011.05 1009.38 1009.59 1009.35 1008.73 1008.78 1008.64 1007.97 1007.45 1008.20 1008.50 1008.81 1009.27 1010.05 1011.31 1011.88 1012.76 1013.67 1014.44 1015.52
1011.91 1011.86 1011.56 1011.09 1010.93 1011.17 1011.57 1011.79 1012.38 1013.46 1013.79 1013.43 1012.44 1010.81 1009.56 1009.78 1009.82 1009.86 1009.49 1009.52 1009.75 1009.37 1009.44 1009.63 1011.38 1010.14 1009.43 1009.67 1009.45 1009.57 1009.81 1009.23 1009.15 1009.06 1009.96 1009.52 1010.04 1010.78 1011.39 1012.40 1013.24 1014.11 1014.79 1015.75
1012.55 1012.91 1012.97 1011.81 1011.52 1011.24 1012.02 1012.29 1012.77 1013.55 1013.85 1013.21 1013.15 1011.03 1010.56 1010.04 1009.98 1009.46 1009.10 1008.47 1008.46 1008.28 1008.08 1008.50 1008.66 1010.36 1009.97 1009.53 1009.91 1009.61 1010.38 1010.67 1010.38 1010.42 1010.29 1010.66 1011.34 1011.55 1012.42 1012.81 1013.81 1014.73 1015.26 1016.28
1013.28 1014.02 1014.13 1013.66 1012.90 1013.54 1013.53 1013.02 1013.03 1013.80 1013.81 1013.27 1012.13 1011.06 1010.17 1009.02 1008.51 1008.30 1007.94 1007.49 1006.80 1007.20 1007.07 1007.08 1007.98 1007.92 1009.15 1009.53 1009.83 1009.91 1010.32 1011.36 1011.06 1010.37 1011.11 1011.66 1011.89 1012.52 1013.30 1013.78 1014.58 1015.33 1016.07 1016.79
1013.74 1014.42 1014.67 1014.21 1013.90 1014.09 1013.73 1012.80 1013.07 1013.20 1012.92 1012.43 1011.03 1009.98 1008.78 1008.37 1007.52 1006.75 1006.27 1005.60 1005.76 1005.68 1005.48 1005.50 1006.28 1007.21 1008.04 1008.89 1009.41 1009.69 1009.61 1011.20 1011.08 1010.66 1011.48 1012.50 1013.01 1012.96 1014.14 1014.69 1015.12 1015.84 1016.55 1017.38
1014.37 1014.90 1015.38 1014.95 1014.97 1014.43 1013.55 1012.35 1012.45 1011.98 1011.79 1010.66 1009.83 1008.54 1008.28 1007.40 1006.72 1005.81 1005.04 1004.50 1004.20 1004.37 1004.32 1004.72 1004.59 1005.63 1006.96 1008.19 1008.43 1008.45 1009.63 1010.51 1010.91 1010.90 1012.03 1013.27 1012.61 1013.73 1014.51 1015.17 1015.71 1016.30 1016.99 1017.68
1015.10 1015.46 1016.00 1015.27 1015.38 1015.00 1013.64 1011.20 1011.60 1010.72 1010.26 1009.75 1008.67 1007.94 1007.69 1006.87 1005.98 1004.88 1003.78 1003.22 1003.44 1003.63 1003.54 1003.91 1004.60 1005.84 1006.51 1007.72 1007.33 1008.36 1009.14 1010.02 1011.15 1011.13 1012.39 1013.00 1013.23 1013.68 1015.27 1015.27 1015.82 1016.19 1017.13 1017.99
1014.42 1015.27 1016.18 1016.18 1015.91 1015.13 1011.55 1010.89 1010.49 1009.87 1008.99 1008.18 1007.93 1007.36 1007.02 1006.47 1005.09 1004.47 1003.58 1003.07 1003.16 1003.36 1003.63 1004.13 1004.43 1005.15 1005.71 1006.44 1007.76 1008.03 1009.07 1010.03 1010.76 1011.62 1012.35 1013.17 1013.51 1014.02 1015.36 1015.78 1016.07 1016.29 1017.02 1018.00
1013.30 1014.38 1015.60 1016.13 1015.43 1013.50 1010.77 1009.90 1009.99 1009.25 1007.98 1007.49 1007.25 1006.71 1006.26 1006.00 1004.53 1003.82 1004.00 1003.77 1003.61 1003.39 1004.19 1005.09 1004.40 1004.66 1005.49 1006.28 1007.09 1008.09 1009.23 1009.89 1010.58 1011.54 1012.20 1012.80 1013.13 1014.19 1014.96 1014.78 1015.66 1016.47 1017.35 1018.27
1012.64 1013.25 1014.62 1015.10 1014.30 1012.85 1009.92 1009.80 1009.25 1008.35 1007.20 1007.25 1006.70 1006.62 1006.65 1005.85 1004.90 1004.34 1003.46 1003.85 1003.71 1003.96 1003.59 1004.90 1004.45 1005.02 1006.11 1006.90 1006.89 1007.61 1008.54 1009.41 1010.34 1011.29 1011.50 1012.17 1013.06 1013.77 1014.22 1015.05 1015.76 1016.42 1017.18 1018.05
1012.44 1012.57 1013.59 1013.80 1013.25 1011.50 1010.08 1009.19 1008.72 1008.61 1008.31 1007.67 1007.05 1006.72 1006.33 1006.20 1005.56 1004.58 1004.10 1003.49 1003.28 1003.39 1003.44 1003.84 1004.94 1005.86 1006.55 1006.63 1007.03 1007.90 1008.71 1009.28 1010.06 1010.80 1011.36 1012.17 1012.71 1013.44 1014.01 1014.74 1015.74 1016.61 1017.16 1018.11
1012.59 1012.85 1012.70 1012.63 1012.13 1011.11 1009.18 1008.94 1009.26 1008.68 1007.84 1007.66 1007.13 1006.47 1006.31 1005.83 1005.50 1005.37 1005.47 1003.68 1003.12 1002.99 1003.87 1004.63 1005.19 1006.18 1006.95 1007.33 1007.62 1008.14 1008.69 1009.11 1009.97 1010.89 1011.71 1012.26 1012.69 1013.39 1014.01 1014.77 1015.87 1016.82 1017.20 1018.19
1012.48 1012.43 1012.04 1012.12 1011.28 1009.67 1008.86 1008.27 1008.07 1008.03 1007.93 1007.47 1007.05 1006.43 1006.18 1005.85 1005.74 1005.65 1005.22 1004.57 1002.78 1003.38 1003.80 1004.86 1005.60 1006.67 1007.60 1008.06 1008.45 1008.91 1009.40 1009.68 1010.28 1011.02 1011.71 1012.18 1012.70 1013.36 1014.13 1014.96 1015.91 1016.77 1017.57 1018.47
1011.87 1011.20 1011.17 1011.35 1009.79 1008.83 1008.05 1007.81 1007.51 1007.37 1007.14 1006.85 1006.38 1006.07 1005.66 1005.55 1005.29 1005.68 1005.34 1004.50 1003.25 1002.90 1003.78 1004.89 1005.88 1007.07 1007.97 1008.40 1008.84 1009.52 1010.08 1010.43 1010.72 1011.26 1011.75 1012.25 1012.85 1013.53 1014.39 1015.28 1015.99 1016.87 1017.63 1018.43
1011.79 1011.18 1010.33 1009.65 1008.70 1008.10 1007.53 1007.24 1006.80 1006.56 1006.05 1005.77 1005.54 1005.13 1004.97 1005.07 1004.91 1004.98 1005.19 1004.45 1003.32 1003.29 1003.61 1004.63 1005.68 1006.91 1007.75 1008.69 1009.46 1009.67 1010.04 1010.46 1010.98 1011.47 1012.15 1012.74 1013.27 1013.79 1014.57 1015.44 1016.14 1016.80 1017.47 1017.79
1010.63 1009.71 1009.67 1008.71 1008.08 1007.92 1007.26 1006.86 1006.12 1005.70 1005.26 1004.98 1004.77 1004.78 1004.70 1004.81 1004.83 1004.77 1004.71 1004.37 1003.54 1003.61 1003.98 1004.70 1005.69 1006.92 1008.12 1008.78 1009.13 1009.38 1009.97 1010.40 1010.98 1011.67 1012.30 1012.87 1013.57 1014.25 1014.93 1015.69 1016.63 1017.33 1017.77 1018.14
Thickness
5662 5643 5646 5654 5657 5666 5667 5668 5670 5684 5701 5695 5696 5697 5702 5711 5711 5711 5716 5717 5721 5728 5738 5744 5748 5751 5745 5739 5730 5726 5719 5713 5707 5701 5692 5680 5672 5662 5658 5658 5653 5649 5646 5643
5644 5639 5664 5673 5671 5666 5663 5660 5663 5681 5690 5686 5687 5701 5703 5709 5712 5713 5714 5715 5714 5716 5727 5731 5731 5733 5736 5737 5730 5723 5717 5712 5705 5697 5690 5683 5676 5665 5657 5650 5645 5640 5635 5631
5636 5650 5666 5661 5657 5656 5659 5653 5654 5654 5667 5670 5667 5696 5691 5705 5714 5723 5723 5722 5725 5724 5721 5718 5719 5718 5724 5726 5734 5727 5717 5708 5699 5690 5680 5670 5660 5653 5647 5647 5641 5635 5630 5624
5638 5657 5656 5654 5652 5654 5641 5654 5645 5641 5630 5619 5661 5641 5676 5688 5692 5696 5706 5705 5701 5703 5700 5698 5701 5704 5710 5720 5720 5715 5704 5693 5682 5673 5665 5661 5655 5640 5635 5631 5623 5621 5621 5619
5635 5644 5638 5637 5649 5647 5631 5637 5631 5629 5616 5619 5640 5609 5687 5678 5665 5679 5690 5694 5672 5675 5683 5685 5684 5685 5688 5703 5699 5692 5686 5676 5672 5662 5653 5644 5634 5625 5618 5609 5599 5592 5588 5591
5622 5640 5633 5634 5641 5640 5634 5618 5610 5611 5600 5584 5647 5605 5651 5657 5645 5651 5662 5659 5657 5660 5666 5666 5662 5664 5662 5673 5678 5677 5670 5662 5651 5643 5636 5629 5621 5614 5605 5596 5590 5582 5577 5572
5612 5614 5623 5626 5616 5621 5613 5597 5568 5572 5570 5590 5630 5607 5632 5632 5633 5638 5638 5637 5635 5633 5631 5630 5631 5634 5633 5635 5642 5647 5646 5640 5635 5626 5615 5609 5611 5606 5595 5585 5576 5571 5565 5558
5582 5581 5610 5606 5593 5585 5589 5584 5553 5556 5564 5572 5603 5589 5616 5604 5604 5599 5598 5596 5600 5601 5599 5600 5602 5604 5608 5613 5617 5618 5615 5612 5615 5610 5601 5596 5597 5592 5586 5579 5568 5561 5553 5546
5561 5580 5594 5588 5582 5583 5572 5557 5561 5546 5552 5538 5572 5589 5608 5597 5585 5579 5567 5558 5553 5552 5566 5574 5576 5574 5578 5579 5591 5597 5597 5595 5588 5588 5586 5575 5576 5576 5570 5563 5555 5549 5539 5534
5548 5541 5571 5573 5575 5571 5556 5556 5532 5525 5516 5525 5553 5557 5565 5555 5552 5549 5544 5534 5529 5527 5529 5535 5551 5551 5546 5547 5551 5547 5554 5562 5560 5559 5560 5554 5552 5549 5547 5542 5536 5530 5520 5517
5535 5524 5537 5551 5551 5539 5532 5526 5516 5509 5493 5485 5506 5522 5540 5522 5519 5514 5515 5518 5515 5518 5506 5501 5501 5518 5515 5517 5523 5524 5528 5532 5538 5532 5533 5533 5531 5526 5519 5517 5514 5509 5504 5496
5506 5509 5502 5526 5533 5528 5519 5517 5514 5452 5469 5464 5459 5482 5523 5508 5503 5505 5510 5513 5503 5505 5506 5499 5479 5485 5491 5494 5501 5502 5503 5508 5510 5513 5506 5514 5511 5507 5503 5499 5495 5489 5486 5481
5495 5477 5470 5501 5513 5513 5502 5506 5501 5479 5455 5456 5428 5443 5499 5492 5484 5491 5493 5501 5503 5502 5504 5495 5491 5475 5478 5484 5481 5485 5482 5485 5489 5488 5494 5493 5489 5489 5483 5483 5479 5472 5469 5462
5474 5466 5460 5461 5479 5467 5458 5478 5482 5459 5428 5434 5440 5447 5473 5487 5486 5485 5481 5486 5494 5490 5493 5490 5480 5481 5474 5471 5469 5470 5469 5464 5470 5481 5477 5474 5476 5472 5467 5464 5459 5453 5448 5443
5455 5439 5449 5460 5463 5452 5448 5461 5457 5440 5439 5423 5439 5446 5466 5471 5476 5477 5483 5492 5489 5490 5494 5495 5488 5476 5476 5465 5465 5461 5466 5454 5458 5465 5462 5456 5453 5457 5448 5446 5445 5439 5433 5426
5433 5413 5422 5425 5434 5433 5428 5451 5440 5439 5433 5434 5435 5435 5458 5455 5465 5475 5478 5487 5492 5490 5493 5486 5495 5484 5474 5463 5461 5461 5456 5451 5450 5453 5445 5436 5445 5437 5432 5430 5428 5425 5420 5413
5406 5390 5386 5392 5410 5399 5384 5439 5419 5420 5428 5427 5415 5436 5443 5448 5457 5471 5482 5488 5486 5483 5489 5482 5480 5471 5465 5459 5461 5453 5449 5444 5437 5438 5430 5426 5426 5426 5412 5418 5415 5414 5406 5398
5401 5390 5366 5370 5380 5347 5419 5434 5426 5419 5428 5438 5428 5435 5441 5443 5458 5462 5466 5478 5477 5482 5475 5470 5470 5467 5465 5461 5448 5447 5440 5433 5429 5423 5418 5413 5412 5409 5401 5401 5402 5401 5395 5387
5405 5390 5359 5357 5368 5389 5422 5428 5416 5412 5416 5431 5419 5432 5440 5435 5455 5461 5456 5464 5463 5462 5453 5451 5459 5463 5457 5454 5448 5442 5430 5423 5420 5413 5408 5404 5402 5396 5393 5398 5389 5385 5378 5371
5408 5397 5376 5374 5368 5365 5423 5410 5412 5422 5414 5421 5427 5427 5420 5432 5428 5440 5454 5450 5453 5452 5456 5448 5459 5452 5439 5437 5443 5438 5427 5420 5413 5406 5405 5400 5392 5390 5389 5383 5378 5373 5367 5361
5382 5364 5367 5368 5366 5388 5404 5408 5410 5390 5395 5407 5415 5414 5420 5413 5420 5436 5439 5448 5452 5450 5455 5453 5443 5436 5432 5433 5434 5428 5420 5416 5407 5400 5395 5390 5387 5383 5380 5375 5366 5361 5358 5351
5376 5352 5340 5366 5347 5349 5404 5402 5391 5398 5404 5402 5408 5414 5414 5421 5421 5421 5418 5437 5449 5449 5443 5439 5436 5429 5423 5421 5421 5416 5414 5407 5397 5388 5379 5376 5374 5370 5368 5363 5355 5351 5349 5341
5356 5365 5373 5369 5358 5383 5393 5394 5394 5394 5392 5397 5397 5405 5409 5414 5410 5406 5403 5414 5443 5439 5438 5433 5427 5419 5410 5407 5405 5402 5395 5389 5381 5373 5366 5362 5361 5359 5355 5351 5346 5342 5337 5332
5365 5378 5363 5352 5384 5392 5392 5390 5393 5393 5393 5397 5401 5404 5408 5408 5411 5403 5408 5415 5435 5438 5434 5428 5420 5409 5401 5399 5395 5388 5381 5376 5370 5362 5355 5350 5347 5346 5343 5340 5337 5332 5328 5323
5348 5355 5362 5364 5379 5383 5390 5389 5392 5392 5397 5399 5402 5407 5409 5406 5407 5408 5405 5408 5421 5427 5430 5424 5415 5405 5397 5390 5383 5382 5377 5370 5361 5353 5344 5339 5338 5337 5335 5332 5329 5327 5323 5322
5348 5352 5336 5350 5371 5368 5380 5383 5392 5393 5398 5400 5401 5400 5401 5400 5400 5402 5403 5407 5416 5415 5418 5414 5406 5396 5386 5382 5381 5379 5372 5366 5357 5348 5341 5336 5331 5328 5326 5323 5318 5314 5312 5312